Regional Weather Roundup
Issued by NWS

Home | Current Version | Previous Version | Text Only | Print | Product List | Glossary On
Versions: 1 2 3 4 5 6 7 8 9 10 11 12 13 14 15 16 17 18 19 20 21 22 23 24 25 26 27 28 29 30 31 32 33 34 35 36 37 38 39 40 41 42 43 44 45 46 47 48 49 50
158
ASUS43 KOAX 180402
RWRNE

WEATHER ROUNDUP FOR NEBRASKA
NATIONAL WEATHER SERVICE OMAHA NE
1100 PM CDT TUE OCT 17 2017

NOTES: SATELLITE DATA IS BEING USED TO AUGMENT CLOUD COVER ABOVE
       12000 FEET.
       "FAIR" INDICATES FEW OR NO CLOUDS BELOW 12,000 FEET WITH NO
       SIGNIFICANT WEATHER AND/OR OBSTRUCTIONS TO VISIBILITY.


NEZ001>004-019>022-054>056-180500-
NEBRASKA PANHANDLE

CITY           SKY/WX    TMP DP  RH WIND       PRES   REMARKS
SCOTTSBLUFF    CLEAR     50  24  36 N7        29.97S
ALLIANCE       CLOUDY    44  23  43 CALM      29.95F
CHADRON        CLEAR     45  22  40 W8        29.88F
GORDON         FAIR      54  24  32 W8        29.91S
KIMBALL        CLOUDY    46  26  44 W8        30.05S
SIDNEY         CLEAR     41  25  53 W9        30.02S
$$

NEZ057>060-069>072-079>082-180500-
SOUTHWEST NEBRASKA

CITY           SKY/WX    TMP DP  RH WIND       PRES   REMARKS
NORTH PLATTE   CLEAR     62  34  35 S8        29.95S
IMPERIAL       CLEAR     53  27  36 SW8       29.99S
LEXINGTON      CLEAR     55  38  52 SE7       29.97S
MCCOOK         CLEAR     59  35  40 S9        29.97F
OGALLALA       CLOUDY    59  28  30 W7G18     29.98R
$$

NEZ005>010-023>029-035>040-094-180500-
NORTH CENTRAL NEBRASKA

CITY           SKY/WX    TMP DP  RH WIND       PRES   REMARKS
VALENTINE      CLEAR     59  28  30 SW14      29.87F
AINSWORTH      CLEAR     47  34  60 S8        29.90S
BROKEN BOW     CLEAR     51  37  58 S6        29.94F
O`NEILL        CLEAR     56  41  56 S7        29.91F
ORD            CLEAR     49  37  63 S9        29.92F
THEDFORD       CLEAR     54  31  41 SW8       29.95S
$$

NEZ041-046>049-061>064-073>077-083>087-180500-
SOUTH CENTRAL NEBRASKA

CITY           SKY/WX    TMP DP  RH WIND       PRES   REMARKS
GRAND ISLAND   CLEAR     55  45  68 S9        29.97F
AURORA         CLEAR     55  43  62 S6        29.98S
HASTINGS       CLEAR     59  43  55 S8        29.98F
HEBRON         CLEAR     56  47  73 S8        30.00S
HOLDREGE       CLEAR     55  41  58 S8        29.97F
KEARNEY        CLEAR     56  41  57 S9        29.97F
YORK           CLEAR     54  46  76 S8        29.98F
$$

NEZ011>018-030>034-042>045-180500-
NORTHEAST NEBRASKA

CITY           SKY/WX    TMP DP  RH WIND       PRES   REMARKS
NORFOLK        CLEAR     59  45  59 S13       29.94F
ALBION         PTCLDY    56  42  60 SE3       29.96S
BLAIR          CLEAR     56  47  70 S5        29.99S
COLUMBUS       CLEAR     55  45  68 SE5       29.97F
FREMONT        CLEAR     60  46  58 S7        29.98F
TEKAMAH        CLEAR     47  43  86 SE6       29.98S
WAYNE          CLEAR     51  46  83 SW5       29.95F
$$

NEZ050>053-065>068-078-088>093-180500-
SOUTHEAST NEBRASKA

CITY           SKY/WX    TMP DP  RH WIND       PRES   REMARKS
LINCOLN        PTCLDY    55  46  71 S3        30.00F
OMAHA EPPLEY   CLEAR     55  46  71 SE7       30.00S
BEATRICE       PTCLDY    58  48  70 S8        30.01S
FALLS CITY     CLEAR     57  47  69 S9        30.03F
NEBRASKA CITY  PTCLDY    55  48  78 S8        30.02R
$$

NEZ044-045-051>053-067-180500-
OMAHA AREA

CITY           SKY/WX    TMP DP  RH WIND       PRES   REMARKS
OMAHA EPPLEY   CLEAR     55  46  71 SE7       30.00S
BLAIR          CLEAR     56  47  70 S5        29.99S
FREMONT        CLEAR     60  46  58 S7        29.98F
MILLARD        CLEAR     51  49  90 CALM      30.00S
OFFUTT AFB     CLEAR     46  44  90 E5        29.99F
WAHOO          FAIR      51  45  78 S5        29.99S
$$




USA.gov is the U.S. government's official web portal to all federal, state and local government web resources and services.